Location: *
(60.1759°S, 155.0663°W)
Time: 05:23:17
(UTC+00:00)

COSMOS 2406 - Pass Details

Date: 17 September 2019
Orbit: 842 x 865 km, 71.0° (Epoch: 14 October)

Event Time Altitude Azimuth Distance (km) Brightness Sun altitude
Exits shadow 15:05:24 - 313° (NW) 2,560 5.2 -10.5°
Reaches altitude 10° 15:05:33 10° 313° (NW) 2,501 5.1 -10.4°
Maximum altitude 15:11:19 75° 226° (SW) 897 3.3 -9.7°
Drops below altitude 10° 15:17:06 10° 140° (SE) 2,507 6.5 -9.0°
Sets 15:19:34 0° 138° (SE) 3,444 7.3 -8.7°
